Flag for Canada Weather past 2 weeks in Cornwall, Ontario, Canada

Now
55 °F

Cool.


Feels Like: 52 °F
Forecast: 38 / 54 °F
Wind: 10 mph from Northwest

Location: St Anicet

Current Time: May 22, 2015 at 11:32:27 AM

Latest Report: May 22, 2015 at 11:00 AM


Visibility: N/A

Pressure: 29.93 "Hg

Humidity: 45%

Dew point: 34 °F

Location of CornwallLocation

Historic Weather in Cornwall — Graph

°F

Cornwall temperature yesterday

Maximum temperature yesterday: 67 °F (at 3:00 PM)
Minimum temperature yesterday: 45 °F (at 3:00 AM)
Average temperature yesterday: 56 °F

Past Weeks' High & Low Weather Summary

 TemperatureHumidityPressure
High89 °F (May 8, 5:00 PM)100% (May 11, 4:00 PM)30.42 "Hg (May 11, 4:00 PM)
Low35 °F (May 14, 5:00 AM)18% (May 7, 3:00 PM)29.61 "Hg (May 12, 3:00 PM)
Average62 °F63%30.01 "Hg
* Reported May 7 10:00 AM — May 22 10:00 AM, Cornwall, Weather by CustomWeather, © 2015

Note: Actual official high and low records may vary slightly from our data, if they occured in-between our weather recording intervals... More about our weather records

Advertising

Cornwall weather history for previous 24 hours

 ConditionsComfort  
Time TempWeatherWind HumidityBarometerVisibility
10:00 AM
Fri, May 22
53 °FCool.8 mph52%29.92 "HgN/A
9:00 AM51 °FCool.8 mph61%29.90 "HgN/A
8:00 AM49 °FCool.9 mph69%29.88 "HgN/A
7:00 AM48 °FCool.6 mph74%29.85 "HgN/A
6:00 AM49 °FCool.6 mph77%29.82 "HgN/A
5:00 AM50 °FCool.9 mph76%29.79 "HgN/A
4:00 AM53 °FCool.8 mph56%29.76 "HgN/A
3:00 AM53 °FCool.5 mph55%29.75 "HgN/A
2:00 AM54 °FCool.7 mph50%29.77 "HgN/A
1:00 AM54 °FCool.6 mph48%29.78 "HgN/A
12:00 AM54 °FCool.6 mph42%29.79 "HgN/A
11:00 PM
Thu, May 21
56 °FRefreshingly cool.8 mph40%29.79 "HgN/A
10:00 PM57 °FRefreshingly cool.9 mph35%29.79 "HgN/A
9:00 PM58 °FRefreshingly cool.8 mph32%29.78 "HgN/A
8:00 PM62 °FRefreshingly cool.9 mph32%29.77 "HgN/A
7:00 PM65 °FMild.12 mph30%29.76 "HgN/A
6:00 PM66 °FMild.13 mph27%29.77 "HgN/A
5:00 PM65 °FMild.15 mph29%29.78 "HgN/A
4:00 PM67 °FMild.16 mph29%29.78 "HgN/A
3:00 PM67 °FMild.15 mph30%29.79 "HgN/A
2:00 PM67 °FMild.15 mph30%29.80 "HgN/A
1:00 PM66 °FMild.14 mph32%29.82 "HgN/A
12:00 PM63 °FMild.14 mph37%29.84 "HgN/A
11:00 AM61 °FRefreshingly cool.9 mph43%29.86 "HgN/A
Weather by CustomWeather, © 2015

See weather overviewHow to use our weather pages